{"data":{"norad_id":59952,"epoch":"2026-09-21T14:06:37.188288Z","epoch_age_seconds":83587,"freshness":"FRESH","line1":"1 59952U 24107H   26264.58793042  .00000916  00000+0  12416-4 0  9995","line2":"2 59952  53.1597   5.5816 0001044  84.2525 275.8611 15.69708694132980","mean_motion":15.69708694,"eccentricity":0.0001044,"inclination_deg":53.1597,"raan_deg":5.5816,"arg_perigee_deg":84.2525,"mean_anomaly_deg":275.8611,"bstar":1.2416e-5,"rev_number":13298,"period_min":91.736766541729,"perigee_km":359.02705432875,"apogee_km":360.43392106018,"semimajor_km":6737.8674876945,"source":"CELESTRAK","updated_at":"2026-09-22T09:00:49.116739Z"}}